Location: Newark
(35.8833°N, 14.5000°E)
Time: 22:16:56
(UTC+00:00)

Envisat - Visible Passes

Search period start: 15 October 2019 00:00
Search period end: 25 October 2019 00:00
Orbit: 764 x 766 km, 98.1° (Epoch: 15 October)

Date Brightness Start Highest point End Pass type
(mag) Time Alt. Az. Time Alt. Az. Time Alt. Az.
15 Oct 3.0 17:14:05 10° SSE 17:19:09 86° WSW 17:24:16 10° NNW visible
16 Oct 5.6 18:17:59 10° SW 18:21:39 20° W 18:25:19 10° NW visible
17 Oct 4.1 17:39:49 10° S 17:44:41 46° W 17:49:34 10° NNW visible
18 Oct 2.9 17:02:51 10° SSE 17:07:55 74° ENE 17:12:59 10° N visible
18 Oct 6.3 18:46:44 10° W 18:47:24 10° W 18:48:03 10° W visible
19 Oct 5.2 18:06:08 10° SSW 18:10:18 25° W 18:14:30 10° NW visible
20 Oct 6.4 04:40:05 10° ENE 04:42:30 13° E 04:44:55 10° ESE visible
20 Oct 3.6 17:28:24 10° S 17:33:23 61° W 17:38:26 10° NNW visible
21 Oct 3.1 16:51:43 10° SSE 16:56:41 57° ENE 17:01:39 10° N visible
21 Oct 6.1 18:33:28 10° WSW 18:36:01 14° W 18:38:34 10° WNW visible
22 Oct 4.8 17:54:27 10° SSW 17:58:58 33° W 18:03:32 10° NNW visible
23 Oct 3.1 17:17:03 10° S 17:22:08 78° WSW 17:27:13 10° NNW visible
24 Oct 3.3 16:40:40 10° SE 16:45:27 44° ENE 16:50:16 10° N visible
24 Oct 5.7 18:21:15 10° SW 18:24:39 18° W 18:28:05 10° NW visible
